Khon Kaen, Thailand

11:01 AM +07 on April 29, 2017 (GMT +0700)
Khon Kaen

Weather History for VTUK - November, 2012

Change the Weather History Date:

Thursday, November 15, 2012

  Actual Average Record
Temperature  
Mean Temperature 82 °F -  
Max Temperature 91 °F 86 °F - ()
Min Temperature 72 °F 64 °F - ()
Cooling Degree Days 16    
Growing Degree Days 32 (Base 50)    
Moisture  
Dew Point 69 °F    
Average Humidity 62    
Maximum Humidity 94    
Minimum Humidity 33    
Precipitation  
Precipitation 0.00 in 0.01 in - ()
Sea Level Pressure  
Sea Level Pressure 29.86 in    
Wind  
Wind Speed 4 mph ()    
Max Wind Speed 9 mph    
Max Gust Speed -    
Visibility 6.2 miles    
Events      
T = Trace of Precipitation, MM = Missing Value Source: Averaged Metar Reports

Daily Weather History Graph

Daily Weather History Graph

Search for Another Location

Airport or City:

Trip Planner

Search our weather history database for the weather conditions in past years. The results will help you decide how hot, cold, wet, or windy it might be!

Date:

Astronomy

Nov. 15, 2012 Rise Set
Actual Time 6:12 AM +07 5:34 PM +07
Civil Twilight 5:49 AM +07 5:56 PM +07
Nautical Twilight 5:23 AM +07 6:23 PM +07
Astronomical Twilight 4:57 AM +07 6:48 PM +07
Moon 7:24 AM +07 (11/15) 7:00 PM +07 (11/15)
Length of Visible Light 12h 07m
Length of Day
11h 21m
New Moon, 3% of the Moon is Illuminated
Nov 15
New Moon
Nov 20
First Quarter
Nov 28
Full
Dec 6
Last Quarter
Dec 13
New

Hourly Weather History & Observations

Time (+07) Temp. Heat Index Dew Point Humidity Pressure Visibility Wind Dir Wind Speed Gust Speed Precip Events Conditions
1:00 AM 78 °F - 68 °F 65% 29.85 in 6 mi ENE 6.9 mph - -  
4:00 AM 73.4 °F - 71.6 °F 94% 29.83 in - North 1.2 mph - N/A   Clear
6:00 AM 71.6 °F - 69.8 °F 94% 29.86 in 6.2 mi North 2.3 mph - N/A   Partly Cloudy
7:00 AM 73 °F - 68 °F 79% 29.88 in 6 mi North 2.3 mph - -   Scattered Clouds
7:00 AM 73.4 °F - 71.6 °F 94% 29.89 in 6.2 mi Calm Calm - N/A   Scattered Clouds
8:00 AM 78.8 °F - 69.8 °F 74% 29.89 in 6.2 mi NNE 3.5 mph - N/A   Scattered Clouds
9:00 AM 82.4 °F 85.4 °F 68.0 °F 62% 29.92 in 6.2 mi East 6.9 mph - N/A   Scattered Clouds
10:00 AM 84.2 °F 87.3 °F 68.0 °F 58% 29.92 in 6.2 mi East 9.2 mph - N/A   Partly Cloudy
11:00 AM 87.8 °F 90.4 °F 66.2 °F 49% 29.92 in 6.2 mi ENE 9.2 mph - N/A   Scattered Clouds
12:00 PM 89.6 °F 93.4 °F 68.0 °F 49% 29.89 in 6.2 mi NE 9.2 mph - N/A   Scattered Clouds
1:00 PM 89 °F - 64 °F 33% 29.85 in 6 mi ENE 3.5 mph - -   Partly Cloudy
1:00 PM 87.8 °F 92.6 °F 69.8 °F 55% 29.86 in 6.2 mi NNE 6.9 mph - N/A   Mostly Cloudy
2:00 PM 91.4 °F 96.8 °F 69.8 °F 49% 29.83 in 6.2 mi ENE 5.8 mph - N/A   Mostly Cloudy
3:00 PM 89.6 °F 93.4 °F 68.0 °F 49% 29.83 in 6.2 mi NE 9.2 mph - N/A   Mostly Cloudy
4:00 PM 89.6 °F 94.7 °F 69.8 °F 52% 29.83 in 6.2 mi East 5.8 mph - N/A   Scattered Clouds
5:00 PM 87.8 °F 92.6 °F 69.8 °F 55% 29.80 in 6.2 mi ENE 5.8 mph - N/A   Partly Cloudy
6:00 PM 86.0 °F 90.4 °F 69.8 °F 58% 29.83 in 6.2 mi ENE 5.8 mph - N/A   Partly Cloudy
7:00 PM 84 °F - 66 °F 45% 29.83 in 6 mi NE 4.6 mph - -   Scattered Clouds
7:00 PM 82.4 °F 85.4 °F 68.0 °F 62% 29.86 in 6.2 mi ENE 6.9 mph - N/A   Partly Cloudy
8:00 PM 82.4 °F 84.6 °F 66.2 °F 58% 29.89 in 6.2 mi ENE 5.8 mph - N/A   Partly Cloudy